"Period start","avg(HW err(1)/warn(2) (#))","avg(Visibility (m))","avg(Weather code (#))","avg(Precip intensity (mm/h))","min(HW err(1)/warn(2) (#))","max(HW err(1)/warn(2) (#))","std(HW err(1)/warn(2) (#))","med(HW err(1)/warn(2) (#))","min(Visibility (m))","max(Visibility (m))","std(Visibility (m))","med(Visibility (m))","min(Weather code (#))","max(Weather code (#))","std(Weather code (#))","med(Weather code (#))","min(Precip intensity (mm/h))","max(Precip intensity (mm/h))","std(Precip intensity (mm/h))","med(Precip intensity (mm/h))"
2014-05-19 00:00:00,2,6755,71,0.24,2,2,0,2,5388,10515,1454,6229,71,71,0,71,0.10,0.40,0.10,0.23
2014-05-19 00:10:00,2,4886,71,0.50,2,2,0,2,3292,6705,1352,4731,71,71,0,71,0.25,0.95,0.20,0.47
2014-05-19 00:20:00,2,4129,71,0.32,2,2,0,2,3375,5666,720,3870,67,71,1,71,0.05,0.65,0.21,0.23
2014-05-19 00:30:00,2,6765,51,0.10,2,2,0,2,4627,10213,1761,6554,10,67,18,54,0.00,0.35,0.12,0.05
2014-05-19 00:40:00,2,1854,32,0.30,2,2,0,2,1211,2439,310,1832,10,41,14,41,0.00,0.65,0.24,0.28
2014-05-19 00:50:00,2,2233,41,0.23,2,2,0,2,1318,3174,595,2120,41,41,0,41,0.00,0.45,0.13,0.20
2014-05-19 01:00:00,2,7289,19,0.01,2,2,0,2,3493,19039,4303,5742,10,54,18,10,0.00,0.10,0.03,0.00
2014-05-19 01:10:00,2,7802,10,0.00,2,2,0,2,5867,10298,1487,7562,10,10,0,10,0.00,0.00,0.00,0.00
2014-05-19 01:20:00,2,12440,10,0.00,2,2,0,2,7594,19528,3535,11838,10,10,0,10,0.00,0.00,0.00,0.00
2014-05-19 01:30:00,2,16274,2,0.00,2,2,0,2,9147,24646,5067,16036,0,10,4,0,0.00,0.00,0.00,0.00
2014-05-19 01:40:00,2,28520,0,0.00,2,2,0,2,9318,42879,11037,32176,0,0,0,0,0.00,0.00,0.00,0.00
2014-05-19 01:50:00,2,23274,16,0.04,2,2,0,2,14776,34861,7236,20282,0,41,20,0,0.00,0.25,0.08,0.00
2014-05-19 02:00:00,2,7082,71,0.55,2,2,0,2,4469,11537,2387,6161,67,77,4,71,0.10,1.05,0.32,0.50
2014-05-19 02:10:00,2,7664,71,0.58,2,2,0,2,6368,11165,1478,7110,71,71,0,71,0.25,1.00,0.23,0.53
2014-05-19 02:20:00,2,4379,71,0.98,2,2,0,2,2481,6419,1316,3954,71,71,0,71,0.55,1.60,0.32,0.95
2014-05-19 02:30:00,2,2621,71,2.17,2,2,0,2,2168,3332,346,2618,71,71,0,71,1.45,3.30,0.52,2.17
2014-05-19 02:40:00,2,2786,71,2.62,2,2,0,2,1873,3678,603,2896,71,71,0,71,1.40,3.70,0.68,2.55
2014-05-19 02:50:00,2,1825,71,3.90,2,2,0,2,1552,2499,267,1758,71,71,0,71,2.75,4.95,0.61,3.88
2014-05-19 03:00:00,2,2516,71,1.91,2,2,0,2,2291,2820,178,2484,71,71,0,71,1.55,2.60,0.34,1.77
2014-05-19 03:10:00,2,2820,71,1.59,2,2,0,2,1878,3547,517,2814,71,71,0,71,0.95,2.55,0.56,1.35
2014-05-19 03:20:00,2,8128,54,0.18,2,2,0,2,3722,17465,3933,8486,10,77,29,71,0.00,0.85,0.31,0.00
2014-05-19 03:30:00,2,19549,5,0.00,2,2,0,2,11910,23996,3085,19837,0,10,5,5,0.00,0.00,0.00,0.00
2014-05-19 03:40:00,2,20001,0,0.00,2,2,0,2,6909,32420,8821,19446,0,0,0,0,0.00,0.00,0.00,0.00
2014-05-19 03:50:00,2,5927,6,0.00,2,2,0,2,2524,11919,2312,5756,0,10,5,10,0.00,0.00,0.00,0.00
2014-05-19 04:00:00,2,4330,22,0.08,2,2,0,2,2417,8375,1787,3799,10,41,15,10,0.00,0.40,0.16,0.00
2014-05-19 04:10:00,2,5601,10,0.00,2,2,0,2,2673,8839,1855,5466,10,10,0,10,0.00,0.00,0.00,0.00
2014-05-19 04:20:00,2,7723,10,0.00,2,2,0,2,4801,12869,2868,6396,10,10,0,10,0.00,0.00,0.00,0.00
2014-05-19 04:30:00,2,9635,10,0.00,2,2,0,2,4000,13791,3279,9863,10,10,0,10,0.00,0.00,0.00,0.00
2014-05-19 04:40:00,2,8910,5,0.00,2,2,0,2,5827,11912,2155,9362,0,10,5,5,0.00,0.00,0.00,0.00
2014-05-19 04:50:00,2,13538,10,0.00,2,2,0,2,6618,23899,5293,12798,10,10,0,10,0.00,0.00,0.00,0.00
2014-05-19 05:00:00,2,8960,3,0.00,2,2,0,2,5597,18343,3543,8010,0,10,5,0,0.00,0.00,0.00,0.00
2014-05-19 05:10:00,2,14786,8,0.00,2,2,0,2,6900,25831,6174,12318,0,10,4,10,0.00,0.00,0.00,0.00
2014-05-19 05:20:00,2,10556,0,0.00,2,2,0,2,7832,16704,2841,9228,0,0,0,0,0.00,0.00,0.00,0.00
2014-05-19 05:30:00,2,11302,0,0.00,2,2,0,2,6347,22712,4580,9876,0,0,0,0,0.00,0.00,0.00,0.00
2014-05-19 05:40:00,2,22462,0,0.00,2,2,0,2,6288,47182,12775,20128,0,0,0,0,0.00,0.00,0.00,0.00
2014-05-19 05:50:00,2,13656,0,0.00,2,2,0,2,8228,24810,5566,10583,0,0,0,0,0.00,0.00,0.00,0.00
2014-05-19 06:00:00,2,10944,0,0.00,2,2,0,2,3784,22340,4781,10502,0,0,0,0,0.00,0.00,0.00,0.00
2014-05-19 06:10:00,2,6702,10,0.00,2,2,0,2,3720,11334,2591,5808,10,10,0,10,0.00,0.00,0.00,0.00
2014-05-19 06:20:00,2,8956,10,0.00,2,2,0,2,4344,17327,4484,7656,10,10,0,10,0.00,0.00,0.00,0.00
2014-05-19 06:30:00,2,14107,7,0.00,2,2,0,2,7628,26316,5579,12744,0,10,5,10,0.00,0.00,0.00,0.00
2014-05-19 06:40:00,2,21166,0,0.00,2,2,0,2,11106,44725,10579,16894,0,0,0,0,0.00,0.00,0.00,0.00
2014-05-19 06:50:00,2,20371,0,0.00,2,2,0,2,14581,32869,6242,18341,0,0,0,0,0.00,0.00,0.00,0.00
2014-05-19 07:00:00,2,21664,0,0.00,2,2,0,2,10816,31230,6173,20611,0,0,0,0,0.00,0.00,0.00,0.00
2014-05-19 07:10:00,2,14306,0,0.00,2,2,0,2,9010,24410,4578,13150,0,0,0,0,0.00,0.00,0.00,0.00
2014-05-19 07:20:00,2,20313,0,0.00,2,2,0,2,15369,25949,3429,19298,0,0,0,0,0.00,0.00,0.00,0.00
2014-05-19 07:30:00,2,23714,0,0.00,2,2,0,2,10499,38659,8435,24550,0,0,0,0,0.00,0.00,0.00,0.00
2014-05-19 07:40:00,2,15127,0,0.00,2,2,0,2,11439,22860,3865,13751,0,0,0,0,0.00,0.00,0.00,0.00
2014-05-19 07:50:00,2,22048,0,0.00,2,2,0,2,11139,36923,7706,21118,0,0,0,0,0.00,0.00,0.00,0.00
2014-05-19 08:00:00,2,14432,0,0.00,2,2,0,2,10777,17663,2412,15430,0,0,0,0,0.00,0.00,0.00,0.00
2014-05-19 08:10:00,2,24224,0,0.00,2,2,0,2,13133,45895,9432,19479,0,0,0,0,0.00,0.00,0.00,0.00
2014-05-19 08:20:00,2,41417,0,0.00,2,2,0,2,29866,50000,7338,42280,0,0,0,0,0.00,0.00,0.00,0.00
2014-05-19 08:30:00,2,35002,0,0.00,2,2,0,2,19426,47760,7568,34354,0,0,0,0,0.00,0.00,0.00,0.00
2014-05-19 08:40:00,2,40528,0,0.00,2,2,0,2,28825,50000,6141,40416,0,0,0,0,0.00,0.00,0.00,0.00
2014-05-19 08:50:00,2,35470,0,0.00,2,2,0,2,24343,42983,6051,36212,0,0,0,0,0.00,0.00,0.00,0.00
2014-05-19 09:00:00,2,39934,0,0.00,2,2,0,2,18798,50000,11608,45434,0,0,0,0,0.00,0.00,0.00,0.00
2014-05-19 09:10:00,2,41212,0,0.00,2,2,0,2,29001,50000,7305,41648,0,0,0,0,0.00,0.00,0.00,0.00
2014-05-19 09:20:00,2,47864,0,0.00,2,2,0,2,42850,50000,3015,50000,0,0,0,0,0.00,0.00,0.00,0.00
2014-05-19 09:30:00,2,49712,0,0.00,2,2,0,2,47476,50000,753,50000,0,0,0,0,0.00,0.00,0.00,0.00
2014-05-19 09:40:00,2,49541,0,0.00,2,2,0,2,47613,50000,804,50000,0,0,0,0,0.00,0.00,0.00,0.00
2014-05-19 09:50:00,2,47676,0,0.00,2,2,0,2,40493,50000,3534,50000,0,0,0,0,0.00,0.00,0.00,0.00
2014-05-19 10:00:00,2,48951,0,0.00,2,2,0,2,45726,50000,1548,50000,0,0,0,0,0.00,0.00,0.00,0.00
2014-05-19 10:10:00,2,49361,0,0.00,2,2,0,2,46949,50000,1139,50000,0,0,0,0,0.00,0.00,0.00,0.00
2014-05-19 10:20:00,2,49853,0,0.00,2,2,0,2,49162,50000,297,50000,0,0,0,0,0.00,0.00,0.00,0.00
2014-05-19 10:30:00,2,49966,0,0.00,2,2,0,2,49658,50000,103,50000,0,0,0,0,0.00,0.00,0.00,0.00
2014-05-19 10:40:00,2,47613,0,0.00,2,2,0,2,34699,50000,4640,50000,0,0,0,0,0.00,0.00,0.00,0.00
2014-05-19 10:50:00,2,44715,0,0.00,2,2,0,2,37245,50000,3918,45284,0,0,0,0,0.00,0.00,0.00,0.00
2014-05-19 11:00:00,2,44556,0,0.00,2,2,0,2,29973,50000,6296,46895,0,0,0,0,0.00,0.00,0.00,0.00
2014-05-19 11:10:00,2,43774,0,0.00,2,2,0,2,31892,50000,5875,45700,0,0,0,0,0.00,0.00,0.00,0.00
2014-05-19 11:20:00,2,44399,0,0.00,2,2,0,2,26297,50000,7946,49589,0,0,0,0,0.00,0.00,0.00,0.00
2014-05-19 11:30:00,2,41963,0,0.00,2,2,0,2,27052,50000,6995,43559,0,0,0,0,0.00,0.00,0.00,0.00
2014-05-19 11:40:00,2,37629,0,0.00,2,2,0,2,27548,46866,5923,39234,0,0,0,0,0.00,0.00,0.00,0.00
2014-05-19 11:50:00,2,45720,0,0.00,2,2,0,2,39427,50000,3302,45330,0,0,0,0,0.00,0.00,0.00,0.00
2014-05-19 12:00:00,2,45355,0,0.00,2,2,0,2,24360,50000,8038,50000,0,0,0,0,0.00,0.00,0.00,0.00
2014-05-19 12:10:00,2,47180,0,0.00,2,2,0,2,38061,50000,3941,49852,0,0,0,0,0.00,0.00,0.00,0.00
2014-05-19 12:20:00,2,49775,0,0.00,2,2,0,2,48620,50000,464,50000,0,0,0,0,0.00,0.00,0.00,0.00
2014-05-19 12:30:00,2,49784,0,0.00,2,2,0,2,47841,50000,648,50000,0,0,0,0,0.00,0.00,0.00,0.00
2014-05-19 12:40:00,2,49843,0,0.00,2,2,0,2,48789,50000,367,50000,0,0,0,0,0.00,0.00,0.00,0.00
2014-05-19 12:50:00,2,50000,0,0.00,2,2,0,2,50000,50000,0,50000,0,0,0,0,0.00,0.00,0.00,0.00
2014-05-19 13:00:00,2,50000,0,0.00,2,2,0,2,50000,50000,0,50000,0,0,0,0,0.00,0.00,0.00,0.00
2014-05-19 13:10:00,2,49862,0,0.00,2,2,0,2,48625,50000,412,50000,0,0,0,0,0.00,0.00,0.00,0.00
2014-05-19 13:20:00,2,49617,0,0.00,2,2,0,2,46169,50000,1149,50000,0,0,0,0,0.00,0.00,0.00,0.00
2014-05-19 13:30:00,2,50000,0,0.00,2,2,0,2,50000,50000,0,50000,0,0,0,0,0.00,0.00,0.00,0.00
2014-05-19 13:40:00,2,50000,0,0.00,2,2,0,2,50000,50000,0,50000,0,0,0,0,0.00,0.00,0.00,0.00
2014-05-19 13:50:00,2,50000,0,0.00,2,2,0,2,50000,50000,0,50000,0,0,0,0,0.00,0.00,0.00,0.00
2014-05-19 14:00:00,2,50000,0,0.00,2,2,0,2,50000,50000,0,50000,0,0,0,0,0.00,0.00,0.00,0.00
2014-05-19 14:10:00,2,50000,0,0.00,2,2,0,2,50000,50000,0,50000,0,0,0,0,0.00,0.00,0.00,0.00
2014-05-19 14:20:00,2,50000,0,0.00,2,2,0,2,50000,50000,0,50000,0,0,0,0,0.00,0.00,0.00,0.00
2014-05-19 14:30:00,2,50000,0,0.00,2,2,0,2,50000,50000,0,50000,0,0,0,0,0.00,0.00,0.00,0.00
2014-05-19 14:40:00,2,50000,0,0.00,2,2,0,2,50000,50000,0,50000,0,0,0,0,0.00,0.00,0.00,0.00
2014-05-19 14:50:00,2,50000,0,0.00,2,2,0,2,50000,50000,0,50000,0,0,0,0,0.00,0.00,0.00,0.00
2014-05-19 15:00:00,2,50000,0,0.00,2,2,0,2,50000,50000,0,50000,0,0,0,0,0.00,0.00,0.00,0.00
2014-05-19 15:10:00,2,50000,0,0.00,2,2,0,2,50000,50000,0,50000,0,0,0,0,0.00,0.00,0.00,0.00
2014-05-19 15:20:00,2,49995,0,0.00,2,2,0,2,49950,50000,15,50000,0,0,0,0,0.00,0.00,0.00,0.00
2014-05-19 15:30:00,2,50000,0,0.00,2,2,0,2,50000,50000,0,50000,0,0,0,0,0.00,0.00,0.00,0.00
2014-05-19 15:40:00,2,50000,0,0.00,2,2,0,2,50000,50000,0,50000,0,0,0,0,0.00,0.00,0.00,0.00
2014-05-19 15:50:00,2,50000,0,0.00,2,2,0,2,50000,50000,0,50000,0,0,0,0,0.00,0.00,0.00,0.00
2014-05-19 16:00:00,2,50000,0,0.00,2,2,0,2,50000,50000,0,50000,0,0,0,0,0.00,0.00,0.00,0.00
2014-05-19 16:10:00,2,50000,0,0.00,2,2,0,2,50000,50000,0,50000,0,0,0,0,0.00,0.00,0.00,0.00
2014-05-19 16:20:00,2,49917,0,0.00,2,2,0,2,49169,50000,249,50000,0,0,0,0,0.00,0.00,0.00,0.00
2014-05-19 16:30:00,2,50000,0,0.00,2,2,0,2,50000,50000,0,50000,0,0,0,0,0.00,0.00,0.00,0.00
2014-05-19 16:40:00,2,50000,0,0.00,2,2,0,2,50000,50000,0,50000,0,0,0,0,0.00,0.00,0.00,0.00
2014-05-19 16:50:00,2,50000,0,0.00,2,2,0,2,50000,50000,0,50000,0,0,0,0,0.00,0.00,0.00,0.00
2014-05-19 17:00:00,2,50000,0,0.00,2,2,0,2,50000,50000,0,50000,0,0,0,0,0.00,0.00,0.00,0.00
2014-05-19 17:10:00,2,50000,0,0.00,2,2,0,2,50000,50000,0,50000,0,0,0,0,0.00,0.00,0.00,0.00
2014-05-19 17:20:00,2,50000,0,0.00,2,2,0,2,50000,50000,0,50000,0,0,0,0,0.00,0.00,0.00,0.00
2014-05-19 17:30:00,2,50000,0,0.00,2,2,0,2,50000,50000,0,50000,0,0,0,0,0.00,0.00,0.00,0.00
2014-05-19 17:40:00,2,50000,0,0.00,2,2,0,2,50000,50000,0,50000,0,0,0,0,0.00,0.00,0.00,0.00
2014-05-19 17:50:00,2,50000,0,0.00,2,2,0,2,50000,50000,0,50000,0,0,0,0,0.00,0.00,0.00,0.00
2014-05-19 18:00:00,2,49597,0,0.00,2,2,0,2,45969,50000,1209,50000,0,0,0,0,0.00,0.00,0.00,0.00
2014-05-19 18:10:00,2,49276,0,0.00,2,2,0,2,45160,50000,1476,50000,0,0,0,0,0.00,0.00,0.00,0.00
2014-05-19 18:20:00,2,49987,0,0.00,2,2,0,2,49873,50000,38,50000,0,0,0,0,0.00,0.00,0.00,0.00
2014-05-19 18:30:00,2,48663,0,0.00,2,2,0,2,44818,50000,1946,50000,0,0,0,0,0.00,0.00,0.00,0.00
2014-05-19 18:40:00,2,50000,0,0.00,2,2,0,2,50000,50000,0,50000,0,0,0,0,0.00,0.00,0.00,0.00
2014-05-19 18:50:00,2,48044,0,0.00,2,2,0,2,42593,50000,2743,49968,0,0,0,0,0.00,0.00,0.00,0.00
2014-05-19 19:00:00,2,47928,0,0.00,2,2,0,2,40670,50000,3003,49898,0,0,0,0,0.00,0.00,0.00,0.00
2014-05-19 19:10:00,2,48816,0,0.00,2,2,0,2,42585,50000,2270,50000,0,0,0,0,0.00,0.00,0.00,0.00
2014-05-19 19:20:00,2,48839,0,0.00,2,2,0,2,44543,50000,1787,49870,0,0,0,0,0.00,0.00,0.00,0.00
2014-05-19 19:30:00,2,49524,0,0.00,2,2,0,2,45982,50000,1200,50000,0,0,0,0,0.00,0.00,0.00,0.00
2014-05-19 19:40:00,2,47046,0,0.00,2,2,0,2,36211,50000,4864,50000,0,0,0,0,0.00,0.00,0.00,0.00
2014-05-19 19:50:00,2,48933,0,0.00,2,2,0,2,44457,50000,1838,50000,0,0,0,0,0.00,0.00,0.00,0.00
2014-05-19 20:00:00,2,49572,0,0.00,2,2,0,2,47233,50000,894,50000,0,0,0,0,0.00,0.00,0.00,0.00
2014-05-19 20:10:00,2,48589,0,0.00,2,2,0,2,44482,50000,1867,49869,0,0,0,0,0.00,0.00,0.00,0.00
2014-05-19 20:20:00,2,49042,0,0.00,2,2,0,2,45777,50000,1520,50000,0,0,0,0,0.00,0.00,0.00,0.00
2014-05-19 20:30:00,2,49611,0,0.00,2,2,0,2,46108,50000,1168,50000,0,0,0,0,0.00,0.00,0.00,0.00
2014-05-19 20:40:00,2,48605,0,0.00,2,2,0,2,44846,50000,1811,49616,0,0,0,0,0.00,0.00,0.00,0.00
2014-05-19 20:50:00,2,45276,0,0.00,2,2,0,2,36606,50000,5242,47354,0,0,0,0,0.00,0.00,0.00,0.00
2014-05-19 21:00:00,2,47474,0,0.00,2,2,0,2,40185,50000,3579,49309,0,0,0,0,0.00,0.00,0.00,0.00
2014-05-19 21:10:00,2,49290,0,0.00,2,2,0,2,45584,50000,1303,50000,0,0,0,0,0.00,0.00,0.00,0.00
2014-05-19 21:20:00,2,47472,0,0.00,2,2,0,2,42531,50000,3227,49678,0,0,0,0,0.00,0.00,0.00,0.00
2014-05-19 21:30:00,2,48445,0,0.00,2,2,0,2,40681,50000,3073,50000,0,0,0,0,0.00,0.00,0.00,0.00
2014-05-19 21:40:00,2,49443,0,0.00,2,2,0,2,45835,50000,1273,50000,0,0,0,0,0.00,0.00,0.00,0.00
2014-05-19 21:50:00,2,49469,0,0.00,2,2,0,2,46048,50000,1195,50000,0,0,0,0,0.00,0.00,0.00,0.00
2014-05-19 22:00:00,2,43888,0,0.00,2,2,0,2,35911,50000,5272,45494,0,0,0,0,0.00,0.00,0.00,0.00
2014-05-19 22:10:00,2,48185,0,0.00,2,2,0,2,34444,50000,4641,50000,0,0,0,0,0.00,0.00,0.00,0.00
2014-05-19 22:20:00,2,43701,0,0.00,0,2,1,2,33908,50000,4963,43011,0,0,0,0,0.00,0.00,0.00,0.00
2014-05-19 22:30:00,1,44423,0,0.00,0,2,1,2,36163,50000,4358,44896,0,0,0,0,0.00,0.00,0.00,0.00
2014-05-19 22:40:00,2,47783,0,0.00,2,2,0,2,40999,50000,2822,49308,0,0,0,0,0.00,0.00,0.00,0.00
2014-05-19 22:50:00,2,42919,0,0.00,0,2,1,2,28459,50000,6767,44226,0,0,0,0,0.00,0.00,0.00,0.00
2014-05-19 23:00:00,2,47962,0,0.00,0,2,1,2,39937,50000,3088,49548,0,0,0,0,0.00,0.00,0.00,0.00
2014-05-19 23:10:00,0,45889,0,0.00,0,0,0,0,37494,50000,4376,46936,0,0,0,0,0.00,0.00,0.00,0.00
2014-05-19 23:20:00,0,46758,0,0.00,0,2,1,0,41796,50000,2711,47378,0,0,0,0,0.00,0.00,0.00,0.00
2014-05-19 23:30:00,2,42934,0,0.00,2,2,0,2,33488,50000,6421,43238,0,0,0,0,0.00,0.00,0.00,0.00
2014-05-19 23:40:00,2,40674,0,0.00,2,2,0,2,32335,48503,5634,41794,0,0,0,0,0.00,0.00,0.00,0.00
2014-05-19 23:50:00,2,43499,0,0.00,2,2,0,2,35000,50000,5353,43772,0,0,0,0,0.00,0.00,0.00,0.00
